Overview Statistics Trail Chart Weather Telemetry Raw packets
 

This is the latest recevied weather packets stored in our database for station/object KC2GYU. If no packets are shown the sender has not sent any weather packets the latest 10 day(s).

<< 66 67 68 69 70 71 72 >>
Time Temp. Humidity Pressure Rain* Wind** Luminosity Snow
1777566285 17.22° C 80% 1008.1 hPa 0 mm - 229 W/m² -
1777565983 16.67° C 82% 1008.2 hPa 0 mm - 266 W/m² -
1777565683 16.11° C 82% 1008.3 hPa 0 mm - 649 W/m² -
1777565380 15° C 84% 1008.4 hPa 0 mm - 568 W/m² -
1777565076 15° C 87% 1008.2 hPa 0 mm - 284 W/m² -
1777564772 14.44° C 88% 1008.5 hPa 0 mm - 265 W/m² -
1777564467 14.44° C 88% 1008.7 hPa 0 mm - 250 W/m² -
1777564163 14.44° C 89% 1008.6 hPa 0 mm - 187 W/m² -
1777563859 14.44° C 89% 1008.5 hPa 0 mm - 240 W/m² -
1777563556 13.89° C 90% 1008.5 hPa 0 mm - 252 W/m² -
1777563255 13.89° C 90% 1008.7 hPa 0 mm - 215 W/m² -
1777562952 13.89° C 90% 1008.4 hPa 0 mm - 121 W/m² -
1777562648 13.89° C 90% 1008.7 hPa 0 mm - 122 W/m² -
1777562348 13.89° C 90% 1008.5 hPa 0 mm - 81 W/m² -
1777562044 13.89° C 90% 1008.7 hPa 0 mm - 172 W/m² -
1777561741 13.89° C 91% 1008.6 hPa 0 mm - 195 W/m² -
1777561436 13.89° C 91% 1009 hPa 0 mm - 154 W/m² -
1777561131 13.89° C 91% 1009.1 hPa 0 mm - 190 W/m² -
1777560827 13.89° C 91% 1009.2 hPa 0 mm - 215 W/m² -
1777560525 13.89° C 91% 1009 hPa 0 mm - 79 W/m² -
1777560222 13.89° C 91% 1009 hPa 0 mm - 104 W/m² -
1777559919 13.89° C 91% 1009.1 hPa 0 mm - 160 W/m² -
1777559614 13.89° C 91% 1009 hPa 0 mm - 149 W/m² -
1777559312 13.89° C 92% 1008.7 hPa 0 mm - 269 W/m² -
1777559008 13.89° C 93% 1008.8 hPa 0 mm - 174 W/m² -

* Rain latest hour (hover to see other rain measurements)
** Current wind speed in m/s (hover to see current wind gust speed)